Regional Weather Roundup
Issued by NWS

Home | Current Version | Previous Version | Graphics & Text | Print | Product List | Glossary On
Versions: 1 2 3 4 5 6 7 8 9 10 11 12 13 14 15 16 17 18 19 20 21 22 23 24 25 26 27 28 29 30 31 32 33 34 35 36 37 38 39 40 41 42 43 44 45 46 47 48 49 50
000
ASUS43 KMPX 212010
RWRMN
WEATHER ROUNDUP FOR MINNESOTA
NATIONAL WEATHER SERVICE TWIN CITIES/CHANHASSEN MN
200 PM CST WED FEB 21 2018


NOTE: "FAIR" INDICATES FEW OR NO CLOUDS BELOW 12,000 FEET WITH NO
SIGNIFICANT WEATHER AND/OR OBSTRUCTIONS TO VISIBILITY. N/A MEANS
CURRENT SKY AND/OR WEATHER CONDITIONS ARE NOT AVAILABLE.

MNZ060>063-068>070-212100-
   Twin Cities Metro

CITY           SKY/WX    TMP DP  RH WIND       PRES   REMARKS
TWIN CITIES    FAIR      17   5  59 S7        30.62F WCI   8
ST PAUL        FAIR      18   4  54 SW7       30.64S WCI   9
CRYSTAL        FAIR      18  -1  43 W7        30.60F WCI   9
BLAINE         MOSUNNY   21   1  42 S6        30.60S WCI  14
LAKEVILLE      FAIR      18   5  57 W7        30.62F WCI   8
EDEN PRAIRIE   FAIR      17   3  54 SW8       30.60F WCI   7
SOUTH ST PAUL  FAIR      19   2  46 SW6       30.62F WCI  11
LAKE ELMO      FAIR      19   9  63 S6        30.62F WCI  11
$$
MNZ001>005-007-008-013>017-022>024-027-028-212100-
   Northwest Minnesota

CITY           SKY/WX    TMP DP  RH WIND       PRES   REMARKS
BEMIDJI        FAIR      20   0  40 W9        30.46S WCI   9
HALLOCK        FAIR       9   0  66 S15       30.47R WCI  -8
ROSEAU         FAIR      10   1  67 S10       30.45R WCI  -3
WARROAD        FAIR      10   0  61 W12       30.44S WCI  -4
THIEF RVR FALL FAIR       5  -2  72 SW16      30.49R WCI -14
CROOKSTON      FAIR       7   0  72 S16       30.52F WCI -11
FOSSTON        FAIR       9  -4  56 S10       30.49F WCI  -6
DETROIT LAKES  FAIR      14   0  52 SW5       30.51S WCI   6
MOORHEAD       FAIR       9  -2  61 S8        30.55F WCI  -4
PARK RAPIDS    FAIR      15   1  53 SW9       30.48F WCI   3
MAHNOMEN       FAIR       8  -2  63 S12       30.50F WCI  -7
$$
MNZ006-009>011-018-025>026-212100-
   North Central Minnesota

CITY           SKY/WX    TMP DP  RH WIND       PRES   REMARKS
BAUDETTE       FAIR      14   1  56 MISG      30.42R
FLAG ISLAND    FAIR      10   1  67 S16       30.41R WCI  -7
INTL FALLS     FAIR      17   3  54 SW9G20    30.43R WCI   6
WASKISH        FAIR      10   1  67 W9        30.47R WCI  -2
BIG FORK       FAIR      19   7  58 SW13      30.46R WCI   7
LONGVILLE      FAIR      21   0  39 SW8       30.50S WCI  12
GRAND RAPIDS   FAIR      22   3  44 W10       30.50R WCI  11
CRANE LAKE     FAIR      18   5  57 SW5       30.47R WCI  11
ORR            FAIR      21   1  42 SW7       30.42R WCI  13
COOK             N/A     19   3  49 SW9       30.47R WCI   9
WALKER         FAIR      19  -1  40 W8        30.47F WCI   9
$$
MNZ012-019>021-037-212100-
   Northeast Minnesota

CITY           SKY/WX    TMP DP  RH WIND       PRES   REMARKS
DULUTH         FAIR      21   5  50 W13       30.49R WCI   9
ELY            FAIR      18   3  53 SW10      30.44S WCI   6
HIBBING        MIX PCPN  20   1  43 W12G20    30.47S WCI   8
EVELETH        FAIR     N/A N/A N/A W10G18    30.47F
DULUTH HARBOR  FAIR      21   7  53 SW14      30.57R WCI   8
TWO HARBORS    FAIR      28   9  43 W14       30.48R WCI  17
GRAND MARAIS     N/A     23  12  62 SW16      30.50S WCI  10
G MARAIS ARPRT FAIR      19   3  49 SW7       30.39S WCI  10
$$
MNZ029>031-032-039>041-046>048-054>057-064-212100-
   West Central Minnesota

CITY           SKY/WX    TMP DP  RH WIND       PRES   REMARKS
FERGUS FALLS   FAIR      10  -2  56 S8        30.56S WCI  -1
WHEATON        FAIR      14  -2  48 S3        30.57F
MORRIS         FAIR      16   1  53 S3        30.55F
ALEXANDRIA     FAIR      13  -1  54 W8        30.53F WCI   2
ELBOW LAKE     FAIR      12  -1  55 S7        30.56F WCI   1
WADENA         FAIR      16  -2  45 W9        30.53S WCI   4
GLENWOOD       FAIR      16   0  48 W6        30.55F WCI   7
APPLETON       FAIR      18   0  45 SW5       30.58F WCI  11
BENSON           N/A     16   0  48 W7        30.59F WCI   6
ORTONVILLE     FAIR      19  -2  38 SW5       30.55F WCI  13
MADISON        FAIR      19   3  49 SW8       30.58F WCI   9
WILLMAR        FAIR      14   3  62 SW6       30.60F WCI   5
$$
MNZ033>034-036-042>043-049>051-058-059-212100-
   Central Minnesota

CITY           SKY/WX    TMP DP  RH WIND       PRES   REMARKS
ST CLOUD       FAIR      15   3  59 S9        30.58S WCI   3
SAUK CENTRE    FAIR      14   1  56 SW6       30.56F WCI   5
PAYNESVILLE    FAIR      17   2  51 W5        30.57S WCI  10
AITKIN         FAIR      19   0  42 SW5       30.51F WCI  13
PINE RIVER     FAIR      18   0  45 SW7       30.53F WCI   8
BRAINERD       FAIR      20   0  41 SW9       30.53F WCI   9
STAPLES        FAIR      19  -2  38 SW3       30.53F
LONG PRAIRIE   FAIR      18   0  45 SW7       30.54F WCI   8
LITTLE FALLS   FAIR      16  -6  38 S6        30.57S WCI   7
LITCHFIELD     FAIR      16   5  62 SW3       30.59F
BUFFALO        FAIR      17   2  52 SW6       30.61F WCI   9
MAPLE LAKE     FAIR      19   4  50 SW6       30.60F WCI  11
HUTCHINSON     FAIR      18   5  55 W8        30.61S WCI   8
$$
MNZ037-044-045-052-053-212100-
   East Central Minnesota

CITY           SKY/WX    TMP DP  RH WIND       PRES   REMARKS
PRINCETON      FAIR      21   1  42 SE5       30.58S WCI  15
MORA           FAIR      19   1  45 SW7       30.59F WCI  10
CAMBRIDGE      FAIR      19   3  49 SW8       30.60S WCI   9
RUSH CITY      FAIR      19   0  43 SW8       30.60S WCI   9
MOOSE LAKE     FAIR      23   3  42 SW9       30.53R WCI  13
HINCKLEY       FAIR      19   1  45 SW6       30.57F WCI  11
CLOQUET        FAIR      21   1  42 SW7       30.50R WCI  13
MCGREGOR       FAIR      21   3  45 SW7       30.53S WCI  13
$$
MNZ071>073-080-081-089-090-097-098-212100-
   Southwest Minnesota

CITY           SKY/WX    TMP DP  RH WIND       PRES   REMARKS
MONTEVIDEO     FAIR      21   3  45 W8        30.59S WCI  12
GRANITE FALLS  FAIR      20   4  50 W8        30.60F WCI  10
CANBY          FAIR      19   1  47 SW8       30.59S WCI   8
MARSHALL       FAIR      18   3  52 W13       30.58F WCI   5
REDWOOD FALLS  FAIR      15   5  64 VRB3      30.60F
OLIVIA         FAIR      18   3  53 W3        30.59S
PIPESTONE      FAIR      12   1  62 SW3       30.54F
WORTHINGTON    FAIR      19   4  51 W7        30.58R WCI  10
JACKSON        FAIR      18   1  49 W5        30.59S WCI  11
TRACY          FAIR      18   6  60 SW9       30.57S WCI   7
SLAYTON        FAIR      15   3  59 SW9       30.56F WCI   3
$$
MNZ065>067-074>077-082>085-091>093-212100-
   South Central Minnesota

CITY           SKY/WX    TMP DP  RH WIND       PRES   REMARKS
MANKATO        FAIR      19   5  54 SW7       30.63S WCI  10
NEW ULM        FAIR      16   1  53 SW3       30.61S
ST JAMES       FAIR      18   3  53 W3        30.63S
FAIRMONT       FAIR      19   5  54 W3        30.63S
GLENCOE        FAIR      18   6  58 SW6       30.60F WCI  10
FARIBAULT      FAIR      18   5  57 S3        30.62R
OWATONNA       FAIR      18   7  62 SW5       30.61R WCI  11
WASECA         FAIR      18   5  57 SW6       30.63S WCI   9
ALBERT LEA     FAIR      19   7  58 CALM      30.61R
$$
MNZ078>079-086>088-094>096-212100-
   Southeast Minnesota

CITY           SKY/WX    TMP DP  RH WIND       PRES   REMARKS
ROCHESTER      FAIR      18   8  65 W3        30.60S
RED WING       FAIR      19   1  45 CALM      30.63S
STANTON        FAIR      18   5  56 SW3       30.62S
DODGE CENTER   FAIR      18   3  53 SW5       30.60R WCI  11
WINONA         FAIR      23   9  54 W6        30.64S WCI  16
AUSTIN         FAIR      19   7  58 W3        30.61S
PRESTON        FAIR      20  12  72 NW3       30.61S
$$
ABBREVIATIONS USED IN REMARKS
   TC - TEMPERATURES IN CELSIUS
  WCI - WIND CHILL INDEX
   HX - HEAT INDEX
  VSB - VISIBILITY
$$



USA.gov is the U.S. government's official web portal to all federal, state and local government web resources and services.